Pipestone, MN

10:44 AM CST on January 20, 2017 (GMT -0600)
Pipestone Municipal

Weather History for KPQN - December, 2013

Change the Weather History Date:

Sunday, December 15, 2013

  Actual Average Record
Temperature  
Mean Temperature 4 °F -  
Max Temperature 8 °F 27 °F 50 °F (2004)
Min Temperature 1 °F 12 °F -13 °F (2008)
Degree Days  
Heating Degree Days 60    
Moisture  
Dew Point -1 °F    
Average Humidity 81    
Maximum Humidity 85    
Minimum Humidity 72    
Precipitation  
Precipitation 0.00 in - - ()
Sea Level Pressure  
Sea Level Pressure 30.01 in    
Wind  
Wind Speed 7 mph (East)    
Max Wind Speed 10 mph    
Max Gust Speed -    
Visibility 9 miles    
Events Snow    
Averages and records for this station are not official NWS values.
T = Trace of Precipitation, MM = Missing Value Source: NWS Daily Summary

Daily Weather History Graph

Daily Weather History Graph

Search for Another Location

Airport or City:

Trip Planner

Search our weather history database for the weather conditions in past years. The results will help you decide how hot, cold, wet, or windy it might be!

Date:

Astronomy

Dec. 15, 2013 Rise Set
Actual Time 7:53 AM CST 4:47 PM CST
Civil Twilight 7:20 AM CST 5:20 PM CST
Nautical Twilight 6:43 AM CST 5:57 PM CST
Astronomical Twilight 6:08 AM CST 6:32 PM CST
Moon 3:55 PM CST (12/15) 6:07 AM CST (12/15)
Length of Visible Light 10h 00m
Length of Day
8h 54m
Waxing Gibbous, 98% of the Moon is Illuminated
Dec 15
Waxing Gibbous
Dec 17
Full
Dec 25
Last Quarter
Jan 1
New
Jan 7
First Quarter

Hourly Weather History & Observations

Time (CST) Temp. Windchill Dew Point Humidity Pressure Visibility Wind Dir Wind Speed Gust Speed Precip Events Conditions
12:13 AM 8.6 °F -3.7 °F 5.0 °F 85% 30.07 in 10.0 mi NNE 8.1 mph - N/A   Overcast
12:33 AM 6.8 °F -4.8 °F 3.2 °F 85% 30.06 in 10.0 mi ENE 6.9 mph - N/A   Overcast
12:53 AM 6.8 °F -3.5 °F 3.2 °F 85% 30.06 in 10.0 mi ENE 5.8 mph - N/A   Overcast
1:13 AM 6.8 °F -0.1 °F 3.2 °F 85% 30.05 in 10.0 mi NE 3.5 mph - N/A   Overcast
1:33 AM 6.8 °F -0.1 °F 1.4 °F 79% 30.05 in 10.0 mi ENE 3.5 mph - N/A Snow Light Snow
1:53 AM 6.8 °F -2.0 °F 1.4 °F 79% 30.04 in 10.0 mi NE 4.6 mph - N/A Snow Light Snow
2:13 AM 6.8 °F -3.5 °F 1.4 °F 79% 30.06 in 5.0 mi NE 5.8 mph - N/A Snow Light Snow
2:33 AM 6.8 °F -2.0 °F 1.4 °F 79% 30.06 in 2.5 mi NE 4.6 mph - N/A Snow Light Snow
2:53 AM 6.8 °F -3.5 °F 1.4 °F 79% 30.06 in 7.0 mi NE 5.8 mph - N/A Snow Light Snow
3:13 AM 6.8 °F -2.0 °F 1.4 °F 79% 30.06 in 7.0 mi NE 4.6 mph - N/A Snow Light Snow
3:33 AM 6.8 °F -3.5 °F 1.4 °F 79% 30.05 in 7.0 mi ENE 5.8 mph - N/A Snow Light Snow
3:53 AM 3.2 °F -9.1 °F -0.4 °F 85% 30.07 in 10.0 mi NE 6.9 mph - N/A   Overcast
4:13 AM 3.2 °F -7.8 °F -0.4 °F 85% 30.05 in 10.0 mi NE 5.8 mph - N/A   Overcast
4:33 AM 3.2 °F -7.8 °F -0.4 °F 85% 30.04 in 10.0 mi East 5.8 mph - N/A   Overcast
4:53 AM 3.2 °F -6.2 °F -2.2 °F 78% 30.04 in 10.0 mi ENE 4.6 mph - N/A   Overcast
5:13 AM 3.2 °F -10.3 °F -2.2 °F 78% 30.06 in 10.0 mi NE 8.1 mph - N/A   Overcast
5:33 AM 1.4 °F -12.5 °F -2.2 °F 85% 30.04 in 10.0 mi ENE 8.1 mph - N/A   Overcast
5:53 AM 1.4 °F -8.3 °F -2.2 °F 85% 30.03 in 10.0 mi ENE 4.6 mph - N/A   Overcast
6:13 AM 1.4 °F -12.5 °F -2.2 °F 85% 30.03 in 10.0 mi ENE 8.1 mph - N/A   Overcast
6:33 AM 1.4 °F -13.5 °F -2.2 °F 85% 30.02 in 10.0 mi ENE 9.2 mph - N/A   Overcast
6:53 AM 1.4 °F -11.3 °F -4.0 °F 78% 30.02 in 10.0 mi ENE 6.9 mph - N/A   Overcast
7:13 AM 1.4 °F -9.9 °F -4.0 °F 78% 30.03 in 10.0 mi East 5.8 mph - N/A   Overcast
7:33 AM 1.4 °F -8.3 °F -5.8 °F 72% 30.04 in 10.0 mi ENE 4.6 mph - N/A Snow Light Snow
7:53 AM 1.4 °F -9.9 °F -5.8 °F 72% 30.03 in 10.0 mi ENE 5.8 mph - N/A   Overcast
8:13 AM 1.4 °F -8.3 °F -5.8 °F 72% 30.03 in 10.0 mi ENE 4.6 mph - N/A   Overcast
8:33 AM 1.4 °F -8.3 °F -4.0 °F 78% 30.03 in 10.0 mi East 4.6 mph - N/A   Overcast
8:53 AM 1.4 °F -8.3 °F -4.0 °F 78% 30.04 in 10.0 mi ENE 4.6 mph - N/A   Overcast
9:13 AM 1.4 °F -8.3 °F -4.0 °F 78% 30.04 in 10.0 mi ENE 4.6 mph - N/A   Overcast
9:33 AM 1.4 °F -6.2 °F -4.0 °F 78% 30.05 in 10.0 mi East 3.5 mph - N/A   Overcast
9:53 AM 1.4 °F -9.9 °F -4.0 °F 78% 30.05 in 10.0 mi ENE 5.8 mph - N/A   Overcast
10:13 AM 3.2 °F -6.2 °F -4.0 °F 72% 30.05 in 10.0 mi East 4.6 mph - N/A Snow Light Snow
10:33 AM 3.2 °F -10.3 °F -4.0 °F 72% 30.05 in 10.0 mi ENE 8.1 mph - N/A   Overcast
10:53 AM 3.2 °F -4.2 °F -2.2 °F 78% 30.04 in 10.0 mi ENE 3.5 mph - N/A   Overcast
11:13 AM 3.2 °F -9.1 °F -2.2 °F 78% 30.04 in 10.0 mi East 6.9 mph - N/A   Overcast
11:33 AM 3.2 °F -11.3 °F -2.2 °F 78% 30.02 in 10.0 mi East 9.2 mph - N/A   Overcast
11:53 AM 3.2 °F -9.1 °F -2.2 °F 78% 30.01 in 10.0 mi ESE 6.9 mph - N/A   Mostly Cloudy
12:13 PM 3.2 °F -10.3 °F -2.2 °F 78% 30.00 in 10.0 mi ESE 8.1 mph - N/A   Mostly Cloudy
12:33 PM 3.2 °F -10.3 °F -2.2 °F 78% 30.00 in 10.0 mi ESE 8.1 mph - N/A   Mostly Cloudy
12:53 PM 3.2 °F -9.1 °F -2.2 °F 78% 29.98 in 10.0 mi ESE 6.9 mph - N/A   Mostly Cloudy
1:13 PM 3.2 °F -9.1 °F -0.4 °F 85% 29.99 in 7.0 mi ESE 6.9 mph - N/A Snow Light Snow
1:33 PM 3.2 °F -9.1 °F -2.2 °F 78% 29.98 in 4.0 mi ESE 6.9 mph - N/A Snow Light Snow
1:53 PM 3.2 °F -6.2 °F -0.4 °F 85% 29.98 in 1.8 mi SE 4.6 mph - N/A Snow Light Snow
2:13 PM 3.2 °F -9.1 °F -0.4 °F 85% 29.99 in 2.5 mi East 6.9 mph - N/A Snow Light Snow
2:33 PM 3.2 °F -9.1 °F -0.4 °F 85% 29.98 in 2.5 mi ESE 6.9 mph - N/A Snow Light Snow
2:53 PM 3.2 °F -11.3 °F -0.4 °F 85% 29.97 in 2.5 mi ESE 9.2 mph - N/A Snow Light Snow
3:13 PM 3.2 °F -10.3 °F -0.4 °F 85% 29.97 in 1.8 mi ESE 8.1 mph - N/A Snow Light Snow
3:33 PM 5.0 °F -6.9 °F -0.4 °F 78% 29.97 in 10.0 mi ESE 6.9 mph - N/A Snow Light Snow
3:53 PM 3.2 °F -12.2 °F -0.4 °F 85% 29.97 in 10.0 mi ESE 10.4 mph - N/A Snow Light Snow
4:13 PM 3.2 °F -11.3 °F -0.4 °F 85% 29.96 in 10.0 mi ESE 9.2 mph - N/A   Overcast
4:33 PM 5.0 °F -9.1 °F -0.4 °F 78% 29.96 in 10.0 mi ESE 9.2 mph - N/A   Overcast
4:53 PM 3.2 °F -11.3 °F -0.4 °F 85% 29.97 in 2.5 mi ESE 9.2 mph - N/A Snow Light Snow
5:13 PM 5.0 °F -9.1 °F -0.4 °F 78% 29.98 in 7.0 mi ESE 9.2 mph - N/A Snow Light Snow
5:33 PM 5.0 °F -8.1 °F -0.4 °F 78% 29.98 in 4.0 mi ESE 8.1 mph - N/A Snow Light Snow
5:53 PM 5.0 °F -9.1 °F -0.4 °F 78% 29.99 in 10.0 mi ESE 9.2 mph - N/A   Overcast
6:13 PM 5.0 °F -8.1 °F -0.4 °F 78% 29.98 in 10.0 mi ESE 8.1 mph - N/A Snow Light Snow
6:33 PM 5.0 °F -8.1 °F -0.4 °F 78% 29.98 in 10.0 mi ESE 8.1 mph - N/A   Overcast
6:53 PM 5.0 °F -9.1 °F -0.4 °F 78% 29.98 in 10.0 mi ESE 9.2 mph - N/A   Overcast
7:13 PM 5.0 °F -10.0 °F -0.4 °F 78% 29.97 in 10.0 mi SE 10.4 mph - N/A   Overcast
7:33 PM 5.0 °F -9.1 °F -0.4 °F 78% 29.96 in 10.0 mi SE 9.2 mph - N/A   Overcast
7:53 PM 5.0 °F -9.1 °F 1.4 °F 85% 29.97 in 10.0 mi SE 9.2 mph - N/A   Overcast
8:13 PM 5.0 °F -8.1 °F 1.4 °F 85% 29.99 in 10.0 mi ESE 8.1 mph - N/A   Overcast
8:33 PM 5.0 °F -8.1 °F 1.4 °F 85% 29.99 in 10.0 mi ESE 8.1 mph - N/A   Overcast
8:53 PM 5.0 °F -9.1 °F 1.4 °F 85% 29.97 in 10.0 mi ESE 9.2 mph - N/A   Overcast
9:13 PM 5.0 °F -9.1 °F 1.4 °F 85% 29.97 in 10.0 mi SE 9.2 mph - N/A   Overcast
9:33 PM 5.0 °F -9.1 °F 1.4 °F 85% 29.96 in 10.0 mi SE 9.2 mph - N/A   Overcast
9:53 PM 5.0 °F -9.1 °F 1.4 °F 85% 29.96 in 10.0 mi SE 9.2 mph - N/A   Overcast
10:13 PM 5.0 °F -9.1 °F 1.4 °F 85% 29.96 in 10.0 mi SE 9.2 mph - N/A   Overcast
10:33 PM 5.0 °F -10.0 °F 1.4 °F 85% 29.97 in 10.0 mi SE 10.4 mph - N/A   Overcast
10:53 PM 5.0 °F -9.1 °F 1.4 °F 85% 29.96 in 10.0 mi SE 9.2 mph - N/A   Overcast
11:13 PM 6.8 °F -7.8 °F 1.4 °F 79% 29.96 in 10.0 mi SE 10.4 mph - N/A   Overcast
11:33 PM 6.8 °F -5.9 °F 1.4 °F 79% 29.95 in 10.0 mi SE 8.1 mph - N/A   Overcast
11:53 PM 6.8 °F -7.8 °F 1.4 °F 79% 29.95 in 10.0 mi SE 10.4 mph - N/A Snow Light Snow